Lima, OH

4:21 PM EDT on June 26, 2017 (GMT -0400)
Lima Allen County

Weather History for KAOH - October, 2013

Change the Weather History Date:

Saturday, October 5, 2013

  Actual Average (KFDY) Record (KFDY)
Temperature  
Mean Temperature 72 °F -  
Max Temperature 80 °F 67 °F 88 °F (1951)
Min Temperature 66 °F 45 °F 27 °F (1965)
Cooling Degree Days 8    
Growing Degree Days 22 (Base 50)    
Moisture  
Dew Point 66 °F    
Average Humidity 83    
Maximum Humidity 90    
Minimum Humidity 66    
Precipitation  
Precipitation 0.58 in - - ()
Sea Level Pressure  
Sea Level Pressure 30.00 in    
Wind  
Wind Speed 6 mph (South)    
Max Wind Speed 12 mph    
Max Gust Speed -    
Visibility 6 miles    
Events Fog , Rain    
Averages and records for this station are not official NWS values.
T = Trace of Precipitation, MM = Missing Value Source: NWS Daily Summary

Daily Weather History Graph

Daily Weather History Graph

Search for Another Location

Airport or City:

Trip Planner

Search our weather history database for the weather conditions in past years. The results will help you decide how hot, cold, wet, or windy it might be!

Date:

Astronomy

Oct. 05, 2013 Rise Set
Actual Time 7:36 AM EDT 7:11 PM EDT
Civil Twilight 7:09 AM EDT 7:38 PM EDT
Nautical Twilight 6:37 AM EDT 8:10 PM EDT
Astronomical Twilight 6:06 AM EDT 8:41 PM EDT
Moon 8:15 AM EDT (10/5) 7:29 PM EDT (10/5)
Length of Visible Light 12h 28m
Length of Day
11h 34m
New Moon, 0% of the Moon is Illuminated
Oct 5
New Moon
Oct 11
First Quarter
Oct 18
Full
Oct 26
Last Quarter
Nov 3
New

Hourly Weather History & Observations

Time (EDT) Temp. Dew Point Humidity Pressure Visibility Wind Dir Wind Speed Gust Speed Precip Events Conditions
12:53 AM 69.1 °F 64.0 °F 84% 30.04 in 8.0 mi South 6.9 mph - N/A   Clear
1:53 AM 69.1 °F 64.9 °F 87% 30.04 in 7.0 mi South 6.9 mph - N/A   Scattered Clouds
2:53 AM 69.1 °F 64.9 °F 87% 30.04 in 7.0 mi South 6.9 mph - N/A   Mostly Cloudy
3:53 AM 69.1 °F 64.9 °F 87% 30.03 in 7.0 mi South 6.9 mph - N/A   Clear
4:53 AM 69.1 °F 64.0 °F 84% 30.02 in 6.0 mi South 3.5 mph - N/A   Haze
5:53 AM 66.9 °F 64.0 °F 90% 30.01 in 4.0 mi South 4.6 mph - N/A   Clear
6:53 AM 68.0 °F 64.0 °F 87% 30.04 in 4.0 mi South 5.8 mph - N/A   Clear
7:53 AM 68.0 °F 64.9 °F 90% 30.03 in 3.0 mi SSE 4.6 mph - N/A   Overcast
8:06 AM 68.0 °F 64.4 °F 88% 30.05 in 1.8 mi South 5.8 mph - 0.03 in Rain Light Rain
8:11 AM 68.0 °F 64.4 °F 88% 30.05 in 0.8 mi South 9.2 mph - 0.17 in Rain Heavy Rain
8:18 AM 69.8 °F 66.2 °F 88% 30.04 in 0.2 mi Calm Calm - 0.53 in Fog , Rain Heavy Rain
8:27 AM 69.8 °F 66.2 °F 88% 30.04 in 1.0 mi South 6.9 mph - 0.54 in Rain Light Rain
8:29 AM 69.8 °F 66.2 °F 88% 30.04 in 2.5 mi South 8.1 mph - 0.54 in Rain Light Rain
8:36 AM 69.8 °F 66.2 °F 88% 30.04 in 5.0 mi South 6.9 mph - 0.54 in   Overcast
8:53 AM 69.1 °F 66.0 °F 90% 30.04 in 3.0 mi South 6.9 mph - 0.55 in Rain Light Rain
9:05 AM 69.8 °F 66.2 °F 88% 30.05 in 2.5 mi South 6.9 mph - 0.01 in Rain Light Rain
9:31 AM 69.8 °F 66.2 °F 88% 30.04 in 3.0 mi South 8.1 mph - 0.01 in   Overcast
9:53 AM 70.0 °F 66.9 °F 90% 30.02 in 3.0 mi South 8.1 mph - 0.01 in   Overcast
10:06 AM 69.8 °F 66.2 °F 88% 30.03 in 3.0 mi SSE 8.1 mph - 0.00 in Rain Light Rain
10:23 AM 69.8 °F 66.2 °F 88% 30.02 in 2.5 mi SSE 9.2 mph - 0.00 in Rain Light Rain
10:35 AM 69.8 °F 66.2 °F 88% 30.04 in 3.0 mi South 6.9 mph - 0.00 in   Overcast
10:53 AM 70.0 °F 66.9 °F 90% 30.02 in 4.0 mi South 8.1 mph - 0.00 in Rain Light Rain
11:20 AM 71.6 °F 68.0 °F 88% 30.03 in 5.0 mi SSW 6.9 mph - 0.01 in Rain Light Rain
11:42 AM 73.4 °F 69.8 °F 88% 30.03 in 6.0 mi SSW 6.9 mph - 0.01 in   Overcast
11:53 AM 72.0 °F 68.0 °F 87% 30.01 in 6.0 mi SW 8.1 mph - 0.01 in   Overcast
12:27 PM 71.6 °F 66.2 °F 83% 30.02 in 7.0 mi SSW 8.1 mph - N/A   Overcast
12:53 PM 73.0 °F 68.0 °F 84% 30.01 in 7.0 mi SW 5.8 mph - N/A   Overcast
1:35 PM 75.2 °F 66.2 °F 73% 30.02 in 10.0 mi SSW 5.8 mph - N/A   Mostly Cloudy
1:53 PM 75.9 °F 66.0 °F 71% 29.99 in 10.0 mi SW 4.6 mph - N/A   Scattered Clouds
2:27 PM 75.2 °F 66.2 °F 73% 30.00 in 10.0 mi Calm Calm - N/A   Mostly Cloudy
2:40 PM 75.2 °F 66.2 °F 73% 30.00 in 10.0 mi Calm Calm - N/A   Scattered Clouds
2:53 PM 77.0 °F 66.9 °F 71% 29.98 in 9.0 mi Calm Calm - N/A   Partly Cloudy
3:53 PM 79.0 °F 66.9 °F 66% 29.94 in 10.0 mi Calm Calm - N/A   Mostly Cloudy
4:53 PM 77.0 °F 68.0 °F 74% 29.94 in 10.0 mi South 4.6 mph - 0.00 in   Partly Cloudy
5:53 PM 78.1 °F 66.0 °F 66% 29.92 in 10.0 mi South 11.5 mph - N/A   Scattered Clouds
6:53 PM 75.0 °F 66.0 °F 73% 29.94 in 10.0 mi South 11.5 mph - N/A   Scattered Clouds
7:53 PM 73.0 °F 66.9 °F 81% 29.93 in 10.0 mi South 9.2 mph - N/A   Clear
8:53 PM 72.0 °F 66.0 °F 81% 29.93 in 10.0 mi SSW 9.2 mph - N/A   Partly Cloudy
9:53 PM 72.0 °F 64.9 °F 78% 29.92 in 10.0 mi South 10.4 mph - N/A   Scattered Clouds
10:53 PM 71.1 °F 66.0 °F 84% 29.90 in 10.0 mi South 10.4 mph - 0.00 in Rain Light Rain
11:53 PM 70.0 °F 64.9 °F 84% 29.89 in 10.0 mi South 9.2 mph - 0.01 in   Mostly Cloudy